Location: Corralito
(14.1667°N, 87.1833°W)
Time: 21:16:59
(UTC+00:00)

STARLINK-1077 - Pass Details

Date: 07 June 2020
Orbit: 549 x 550 km, 53.0° (Epoch: 04 July)

Event Time Altitude Azimuth Distance (km) Brightness Sun altitude
Rises 00:48:01 0° 336° (NNW) 2,711 8.0 -7.9°
Reaches altitude 10° 00:50:24 10° 346° (NNW) 1,818 6.9 -8.5°
Maximum altitude 00:54:11 35° 52° (NE) 898 4.5 -9.3°
Enters shadow 00:57:23 13° 115° (ESE) 1,607 5.3 -10.0°
